Orbital Elements at Epoch 2459200.5 (2020-Dec-17.0) TDB
Reference: JPL 21 (heliocentric ecliptic J2000)
Element | Value | Uncertainty (1-sigma) | Units |
e | .2152161546673529 | 3.2225e-08 | |
a | 2.326813209124564 | 7.007e-09 | au |
q | 1.826045417627572 | 7.4574e-08 | au |
i | 2.613292899587712 | 3.8137e-06 | deg |
node | 182.9698003236743 | 8.2146e-05 | deg |
peri | 138.5108997056919 | 8.2757e-05 | deg |
M | 118.9547642722211 | 1.2653e-05 | deg |
tp | 2458772.129014260498 (2019-Oct-15.62901426) | 4.4258e-05 | TDB |
period | 1296.405031019287 3.55 | 5.856e-06 1.603e-08 | d yr |
n | .2776909926961277 | 1.2544e-09 | deg/d |
Q | 2.827581000621556 | 8.515e-09 | au |
|
| | Orbit Determination Parameters
Additional Information
|